DW6963 Weather Reports


Display with metric or nautical units.
time (UTC)temp
F
wind
direction
speed
MPH
gust
MPH
rain 1hr
in
rain 24hr
in
rain mn
in
humidity
%
barometer
mb
20260510172503 66 0 0.0 0.0 0.00 0.00 0.00 53 1016.8
20260510172004 66 0 0.0 0.0 0.00 0.00 0.00 53 1016.6
20260510171503 66 0 0.0 0.0 0.00 0.00 0.00 55 1016.6
20260510171004 65 0 0.0 0.0 0.00 0.00 0.00 52 1016.8
20260510170549 65 0 0.0 0.0 0.00 0.00 0.00 54 1016.7
20260510170410 65 0 0.0 0.0 0.00 0.00 0.00 56 1016.8
20260510165911 65 0 0.0 0.0 0.00 0.00 0.00 51 1016.8
20260510165411 65 0 0.0 0.0 0.00 0.00 0.00 53 1016.9
20260510164910 65 0 0.0 0.0 0.00 0.00 0.00 52 1017.0
20260510164410 65 0 0.0 0.0 0.00 0.00 0.00 55 1016.9
20260510163910 65 0 0.0 0.0 0.00 0.00 0.00 54 1016.9
20260510163410 65 0 0.0 0.0 0.00 0.00 0.00 51 1016.9
20260510162410 65 0 0.0 0.0 0.00 0.00 0.00 51 1016.9
20260510161910 65 0 0.0 0.0 0.00 0.00 0.00 52 1016.8
20260510160911 64 0 0.0 0.0 0.00 0.00 0.00 55 1016.8
20260510160410 64 0 0.0 0.0 0.00 0.00 0.00 52 1016.7
20260510155911 64 0 0.0 0.0 0.00 0.00 0.00 52 1016.9
20260510155410 64 0 0.0 0.0 0.00 0.00 0.00 52 1016.9
20260510154411 64 0 0.0 0.0 0.00 0.00 0.00 52 1016.7
20260510153910 64 0 0.0 0.0 0.00 0.00 0.00 52 1016.7
20260510153410 64 0 0.0 0.0 0.00 0.00 0.00 50 1016.7
20260510152910 64 0 0.0 0.0 0.00 0.00 0.00 49 1016.6
20260510152410 64 0 0.0 0.0 0.00 0.00 0.00 53 1016.6
20260510151910 63 0 0.0 0.0 0.00 0.00 0.00 53 1016.5
20260510151410 63 0 0.0 0.0 0.00 0.00 0.00 55 1016.5
20260510150911 63 0 0.0 0.0 0.00 0.00 0.00 56 1016.5
20260510150410 62 0 0.0 0.0 0.00 0.00 0.00 58 1016.4
20260510145910 62 0 0.0 0.0 0.00 0.00 0.00 57 1016.5
20260510143910 61 0 0.0 0.0 0.00 0.00 0.00 58 1016.1
20260510143410 61 0 0.0 0.0 0.00 0.00 0.00 59 1015.9
20260510142910 61 0 0.0 0.0 0.00 0.00 0.00 59 1015.9
20260510142410 61 0 0.0 0.0 0.00 0.00 0.00 58 1015.9
20260510141910 62 0 0.0 0.0 0.00 0.00 0.00 59 1015.8
20260510141410 61 0 0.0 0.0 0.00 0.00 0.00 64 1015.6
20260510140911 61 0 0.0 0.0 0.00 0.00 0.00 62 1015.4
20260510140410 61 0 0.0 0.0 0.00 0.00 0.00 64 1015.3
20260510135910 60 0 0.0 0.0 0.00 0.00 0.00 64 1015.2
20260510135410 60 0 0.0 0.0 0.00 0.00 0.00 66 1015.3
20260510134910 60 0 0.0 0.0 0.00 0.00 0.00 65 1015.2
20260510134410 60 0 0.0 0.0 0.00 0.00 0.00 66 1015.0
20260510133910 59 0 0.0 0.0 0.00 0.00 0.00 67 1014.9
20260510132410 58 0 0.0 0.0 0.00 0.00 0.00 69 1014.7
20260510131910 58 0 0.0 0.0 0.00 0.00 0.00 69 1014.7
20260510130910 58 0 0.0 0.0 0.00 0.00 0.00 72 1014.7
20260510130410 57 0 0.0 0.0 0.00 0.00 0.00 72 1014.6
20260510125911 56 0 0.0 0.0 0.00 0.00 0.00 73 1014.6
20260510125410 56 0 0.0 0.0 0.00 0.00 0.00 73 1014.4
20260510124911 56 0 0.0 0.0 0.00 0.00 0.00 73 1014.3
20260510124410 56 0 0.0 0.0 0.00 0.00 0.00 74 1014.4
20260510123410 56 0 0.0 0.0 0.00 0.00 0.00 77 1014.2
20260510122410 56 0 0.0 0.0 0.00 0.00 0.00 78 1014.1
20260510121911 55 0 0.0 0.0 0.00 0.00 0.00 81 1014.0
20260510121410 56 0 0.0 0.0 0.00 0.00 0.00 81 1013.9
20260510120911 56 0 0.0 0.0 0.00 0.00 0.00 81 1013.9
20260510120410 56 0 0.0 0.0 0.00 0.00 0.00 80 1013.8
20260510115911 55 0 0.0 0.0 0.00 0.00 0.00 80 1013.7
20260510115410 56 0 0.0 0.0 0.00 0.00 0.00 81 1013.9
20260510114910 55 0 0.0 0.0 0.00 0.00 0.00 81 1014.0
20260510114410 55 0 0.0 0.0 0.00 0.00 0.00 82 1014.0
20260510113910 55 0 0.0 0.0 0.00 0.00 0.00 82 1013.9
20260510113411 55 0 0.0 0.0 0.00 0.00 0.00 83 1013.9
20260510112911 55 0 0.0 0.0 0.00 0.00 0.00 84 1013.7
20260510112410 55 0 0.0 0.0 0.00 0.00 0.00 85 1013.5
20260510111911 55 0 0.0 0.0 0.00 0.00 0.00 86 1013.3
20260510111410 55 0 0.0 0.0 0.00 0.00 0.00 87 1013.3
20260510110910 54 0 0.0 0.0 0.00 0.00 0.00 87 1013.1
20260510110411 54 0 0.0 0.0 0.00 0.00 0.00 88 1013.0
20260510105910 54 0 0.0 0.0 0.00 0.00 0.00 88 1012.9
20260510105410 54 0 0.0 0.0 0.00 0.00 0.00 89 1012.7
20260510104910 54 0 0.0 0.0 0.00 0.00 0.00 89 1012.7
20260510104410 54 0 0.0 0.0 0.00 0.00 0.00 89 1012.7
20260510103410 53 0 0.0 0.0 0.00 0.00 0.00 89 1012.7
20260510102911 53 0 0.0 0.0 0.00 0.00 0.00 89 1012.6
20260510102410 53 0 0.0 0.0 0.00 0.00 0.00 88 1012.5
20260510101911 53 0 0.0 0.0 0.00 0.00 0.00 88 1012.5
20260510101410 53 0 0.0 0.0 0.00 0.00 0.00 88 1012.4
20260510095410 53 0 0.0 0.0 0.00 0.00 0.00 88 1012.1
20260510094911 53 0 0.0 0.0 0.00 0.00 0.00 88 1011.9
20260510094410 53 0 0.0 0.0 0.00 0.00 0.00 87 1011.9
20260510093910 53 0 0.0 0.0 0.00 0.00 0.00 88 1011.9
20260510092911 53 0 0.0 0.0 0.00 0.00 0.00 88 1011.9
20260510091910 53 0 0.0 0.0 0.00 0.00 0.00 88 1011.7
20260510091410 53 0 0.0 0.0 0.00 0.00 0.00 88 1011.6
20260510090910 53 0 0.0 0.0 0.00 0.00 0.00 88 1011.5
20260510090410 52 0 0.0 0.0 0.00 0.00 0.00 87 1011.4
20260510085910 53 0 0.0 0.0 0.00 0.00 0.00 87 1011.4
20260510085410 53 0 0.0 0.0 0.00 0.00 0.00 87 1011.3
20260510084410 53 0 0.0 0.0 0.00 0.00 0.00 86 1011.2
20260510083910 53 0 0.0 0.0 0.00 0.00 0.00 86 1011.0
20260510083411 53 0 0.0 0.0 0.00 0.00 0.00 86 1011.0
20260510082910 53 0 0.0 0.0 0.00 0.00 0.00 86 1010.9
20260510082410 53 0 0.0 0.0 0.00 0.00 0.00 86 1010.8
20260510081910 54 0 0.0 0.0 0.00 0.00 0.00 86 1010.7
20260510081410 54 0 0.0 0.0 0.00 0.00 0.00 86 1010.5
20260510075911 54 0 0.0 0.0 0.00 0.00 0.00 85 1010.2
20260510075412 54 0 0.0 0.0 0.00 0.00 0.00 84 1010.4
20260510074910 54 0 0.0 0.0 0.00 0.00 0.00 84 1010.4
20260510074411 55 0 0.0 0.0 0.00 0.00 0.00 84 1010.4
20260510073411 55 0 0.0 0.0 0.00 0.00 0.00 82 1010.2
20260510072911 56 0 0.0 0.0 0.00 0.00 0.00 82 1010.3
20260510072410 56 0 0.0 0.0 0.00 0.00 0.00 81 1010.4
20260510071910 56 0 0.0 0.0 0.00 0.00 0.00 81 1010.4
20260510071411 57 0 0.0 0.0 0.00 0.00 0.00 80 1010.5
20260510070911 57 0 0.0 0.0 0.00 0.00 0.00 79 1010.4
20260510065910 58 0 0.0 0.0 0.00 0.00 0.00 79 1010.3
20260510065410 58 0 0.0 0.0 0.00 0.00 0.00 78 1010.3
20260510064910 59 0 0.0 0.0 0.00 0.00 0.00 78 1010.4
20260510064410 59 0 0.0 0.0 0.00 0.00 0.00 78 1010.4
20260510063411 58 0 0.0 0.0 0.00 0.00 0.00 79 1010.7
20260510062912 58 0 0.0 0.0 0.00 0.00 0.00 79 1010.7
20260510061911 57 0 0.0 0.0 0.00 0.00 0.00 79 1010.4
20260510061410 57 0 0.0 0.0 0.00 0.00 0.00 78 1010.3
20260510060411 58 0 0.0 0.0 0.00 0.00 0.00 77 1010.4
20260510055910 58 0 0.0 0.0 0.00 0.00 0.00 76 1010.4
20260510055410 59 0 0.0 0.0 0.00 0.00 0.00 75 1010.4
20260510054911 59 0 0.0 0.0 0.00 0.00 0.00 75 1010.4
20260510054410 60 0 0.0 0.0 0.00 0.00 0.00 74 1010.3
20260510053911 60 0 0.0 0.0 0.00 0.00 0.00 74 1010.3
20260510053410 60 0 0.0 0.0 0.00 0.00 0.00 73 1010.4
20260510052410 61 0 0.0 0.0 0.00 0.00 0.00 72 1010.4
20260510051911 61 0 0.0 0.0 0.00 0.00 0.00 72 1010.3
20260510051410 61 0 0.0 0.0 0.00 0.00 0.00 72 1010.5
20260510050910 61 0 0.0 0.0 0.00 0.00 0.00 72 1010.5
20260510045910 61 0 0.0 0.0 0.00 0.00 0.00 72 1010.3
20260510044911 61 0 0.0 0.0 0.00 0.00 0.00 72 1010.4
20260510044410 61 0 0.0 0.0 0.00 0.00 0.00 72 1010.3
20260510043911 61 0 0.0 0.0 0.00 0.00 0.00 71 1010.2
20260510043410 61 0 0.0 0.0 0.00 0.00 0.00 71 1010.2
20260510042910 61 0 0.0 0.0 0.00 0.00 0.00 71 1010.1
20260510041910 61 0 0.0 0.0 0.00 0.00 0.00 72 1009.9
20260510041411 61 0 0.0 0.0 0.00 0.00 0.00 71 1009.9
20260510040911 61 0 0.0 0.0 0.00 0.00 0.00 71 1010.0
20260510040414 61 0 0.0 0.0 0.00 0.00 0.00 70 1010.0
20260510035410 62 0 0.0 0.0 0.00 0.00 0.00 70 1010.1
20260510034910 62 0 0.0 0.0 0.00 0.00 0.00 69 1010.1
20260510034411 62 0 0.0 0.0 0.00 0.00 0.00 69 1010.0
20260510033910 62 0 0.0 0.0 0.00 0.00 0.00 68 1010.1
20260510033410 62 0 0.0 0.0 0.00 0.00 0.00 68 1010.1
20260510032910 63 0 0.0 0.0 0.00 0.00 0.00 68 1010.1
20260510032410 63 0 0.0 0.0 0.00 0.00 0.00 68 1010.0
20260510031911 63 0 0.0 0.0 0.00 0.00 0.00 68 1009.9
20260510030911 63 0 0.0 0.0 0.00 0.00 0.00 67 1009.9
20260510030411 63 0 0.0 0.0 0.00 0.00 0.00 67 1010.0
20260510025911 63 0 0.0 0.0 0.00 0.00 0.00 68 1009.9
20260510025411 63 0 0.0 0.0 0.00 0.00 0.00 68 1009.9
20260510024911 63 0 0.0 0.0 0.00 0.00 0.00 68 1009.8
20260510024411 63 0 0.0 0.0 0.00 0.00 0.00 68 1009.8
20260510023911 63 0 0.0 0.0 0.00 0.00 0.00 68 1009.8
20260510023410 63 0 0.0 0.0 0.00 0.00 0.00 68 1009.8
20260510022910 63 0 0.0 0.0 0.00 0.00 0.00 68 1009.7
20260510022410 63 0 0.0 0.0 0.00 0.00 0.00 68 1009.7
20260510021910 63 0 0.0 0.0 0.00 0.00 0.00 68 1009.6
20260510021410 63 0 0.0 0.0 0.00 0.00 0.00 68 1009.5
20260510020410 63 0 0.0 0.0 0.00 0.00 0.00 68 1009.4
20260510015910 64 0 0.0 0.0 0.00 0.00 0.00 67 1009.3
20260510015411 64 0 0.0 0.0 0.00 0.00 0.00 67 1009.3
20260510014910 63 0 0.0 0.0 0.00 0.00 0.00 68 1009.2
20260510014410 63 0 0.0 0.0 0.00 0.00 0.00 67 1009.1
20260510013910 63 0 0.0 0.0 0.00 0.00 0.00 67 1009.0
20260510013410 63 0 0.0 0.0 0.00 0.00 0.00 67 1009.0
20260510012911 63 0 0.0 0.0 0.00 0.00 0.00 66 1008.9
20260510012411 64 0 0.0 0.0 0.00 0.00 0.00 65 1008.9
20260510011411 65 0 0.0 0.0 0.00 0.00 0.00 63 1008.8
20260510010410 66 0 0.0 0.0 0.00 0.00 0.00 61 1008.6
20260510005911 66 0 0.0 0.0 0.00 0.00 0.00 60 1008.5
20260510005412 67 0 0.0 0.0 0.00 0.00 0.00 59 1008.4
20260510004911 67 0 0.0 0.0 0.00 0.00 0.00 58 1008.5
20260510003910 68 0 0.0 0.0 0.00 0.00 0.00 57 1008.2
20260510003411 68 0 0.0 0.0 0.00 0.00 0.00 57 1008.2
20260510001911 69 0 0.0 0.0 0.00 0.00 0.00 55 1007.9
20260510001411 70 0 0.0 0.0 0.00 0.00 0.00 55 1007.8
20260510000910 70 0 0.0 0.0 0.00 0.00 0.00 54 1007.8
20260510000411 70 0 0.0 0.0 0.00 0.00 0.00 53 1007.7
20260509235410 71 0 0.0 0.0 0.00 0.00 0.00 52 1007.6
20260509234411 71 0 0.0 0.0 0.00 0.00 0.00 52 1007.5
20260509233911 71 0 0.0 0.0 0.00 0.00 0.00 52 1007.5
20260509233411 71 0 0.0 0.0 0.00 0.00 0.00 51 1007.5
20260509232910 71 0 0.0 0.0 0.00 0.00 0.00 51 1007.4
20260509231410 72 0 0.0 0.0 0.00 0.00 0.00 50 1007.3
20260509230410 72 0 0.0 0.0 0.00 0.00 0.00 50 1007.3
20260509225910 72 0 0.0 0.0 0.00 0.00 0.00 49 1007.3
20260509225410 72 0 0.0 0.0 0.00 0.00 0.00 50 1007.2
20260509224910 72 0 0.0 0.0 0.00 0.00 0.00 50 1007.3
20260509224410 72 0 0.0 0.0 0.00 0.00 0.00 52 1007.1
20260509223411 72 0 0.0 0.0 0.00 0.00 0.00 52 1007.2
20260509222411 72 0 0.0 0.0 0.00 0.00 0.00 51 1007.3
20260509221911 72 0 0.0 0.0 0.00 0.00 0.00 52 1007.4
20260509221410 72 0 0.0 0.0 0.00 0.00 0.00 52 1007.4
20260509220911 72 0 0.0 0.0 0.00 0.00 0.00 53 1007.4
20260509220410 72 0 0.0 0.0 0.00 0.00 0.00 52 1007.4
20260509215911 72 0 0.0 0.0 0.00 0.00 0.00 52 1007.4
20260509214911 72 0 0.0 0.0 0.00 0.00 0.00 52 1007.4
20260509214411 72 0 0.0 0.0 0.00 0.00 0.00 51 1007.4
20260509213911 72 0 0.0 0.0 0.00 0.00 0.00 54 1007.4
20260509213410 72 0 0.0 0.0 0.00 0.00 0.00 53 1007.4
20260509212911 72 0 0.0 0.0 0.00 0.00 0.00 52 1007.4
20260509211911 72 0 0.0 0.0 0.00 0.00 0.00 52 1007.6
20260509210910 72 0 0.0 0.0 0.00 0.00 0.00 54 1007.6
20260509210411 72 0 0.0 0.0 0.00 0.00 0.00 54 1007.5
20260509205911 72 0 0.0 0.0 0.00 0.00 0.00 53 1007.5
20260509205411 71 0 0.0 0.0 0.00 0.00 0.00 54 1007.6
20260509204911 71 0 0.0 0.0 0.00 0.00 0.00 54 1007.7
20260509204411 71 0 0.0 0.0 0.00 0.00 0.00 55 1007.7
20260509203911 71 0 0.0 0.0 0.00 0.00 0.00 54 1007.7
20260509203410 71 0 0.0 0.0 0.00 0.00 0.00 53 1007.8
20260509202910 71 0 0.0 0.0 0.00 0.00 0.00 54 1007.8
20260509201910 71 0 0.0 0.0 0.00 0.00 0.00 54 1007.8
20260509201411 71 0 0.0 0.0 0.00 0.00 0.00 55 1007.8
20260509195911 70 0 0.0 0.0 0.00 0.00 0.00 56 1008.0
20260509195412 70 0 0.0 0.0 0.00 0.00 0.00 57 1008.0
20260509194910 70 0 0.0 0.0 0.00 0.00 0.00 58 1008.1
20260509194411 70 0 0.0 0.0 0.00 0.00 0.00 58 1008.2
20260509193910 70 0 0.0 0.0 0.00 0.00 0.00 62 1008.2
20260509193411 70 0 0.0 0.0 0.00 0.00 0.00 59 1008.4
20260509192410 70 0 0.0 0.0 0.00 0.00 0.00 58 1008.4
20260509191410 69 0 0.0 0.0 0.00 0.00 0.00 64 1008.4
20260509190910 68 0 0.0 0.0 0.00 0.00 0.00 62 1008.5
20260509185410 68 0 0.0 0.0 0.00 0.00 0.00 65 1008.5
20260509184910 68 0 0.0 0.0 0.00 0.00 0.00 64 1008.6
20260509184411 68 0 0.0 0.0 0.00 0.00 0.00 64 1008.6
20260509183910 68 0 0.0 0.0 0.00 0.00 0.00 65 1008.7
20260509183410 68 0 0.0 0.0 0.00 0.00 0.00 65 1008.7
20260509182911 67 0 0.0 0.0 0.00 0.00 0.00 63 1008.7
20260509182410 67 0 0.0 0.0 0.00 0.00 0.00 65 1008.7
20260509181911 68 0 0.0 0.0 0.00 0.00 0.00 66 1008.6
20260509181410 67 0 0.0 0.0 0.00 0.00 0.00 67 1008.6
20260509180911 68 0 0.0 0.0 0.00 0.00 0.00 66 1008.7
20260509175910 66 0 0.0 0.0 0.00 0.00 0.00 66 1008.7
20260509174910 66 0 0.0 0.0 0.00 0.00 0.00 66 1008.8
20260509174411 66 0 0.0 0.0 0.00 0.00 0.00 67 1008.6
20260509173911 66 0 0.0 0.0 0.00 0.00 0.00 66 1008.7
20260509173410 66 0 0.0 0.0 0.00 0.00 0.00 67 1008.8